Location: Johnson City
(36.3130°N, 82.3540°W)
Time: 12:15:24
(UTC-05:00)

Hubble Space Telescope - Pass Details

Date: 30 November 2021
Orbit: 534 x 538 km, 28.5° (Epoch: 19 January)

Event Time Altitude Azimuth Distance (km) Brightness Sun altitude
Exits shadow 05:34:41 24° 204° (SSW) 1,115 2.2 -21.1°
Maximum altitude 05:35:27 26° 185° (S) 1,068 2.3 -21.0°
Drops below altitude 10° 05:38:53 10° 128° (SE) 1,773 4.3 -20.3°
Sets 05:41:24 0° 115° (ESE) 2,664 5.8 -19.8°
